Starlink 33886

operational
NORAD ID: 63681 Int'l Des: 2025-085 Owner: SPXS Country: US Constellation: starlink
LEOCIRCULAR

About Starlink 33886

Description loading...

Live Position

Loading 3D Globe...

Upcoming Passes

Altitude History

Altitude vs Time

uPlot chart will show altitude changes over time

Two-Line Element Set

1 63681U 25085T 25302.64179037 .00032128 00000-0 11708-2 0 9998
2 63681 43.0016 50.5031 0001594 267.6953 92.3717 15.27612533 28836
Epoch: Oct 29, 2025 • Age: 37 hours

Current Status

Altitude 482.9 km
Velocity 7.63 km/s
Sub-Earth Point -2.84°S, 120.68°E
Launch Date Apr 28, 2025
Age 0.5 years
Type internet

Technical Details

Classification Payload
Mass 575.00 kg
Dry Mass 530.00 kg
Total Mass 575.00 kg
Length 0.30 m
Diameter 4.10 m
Span 29.00 m
Shape Box + pan
Manufacturer SPXS
Bus Type Starlink V2MO
Phase Status In Orbit
Owner/State SPXS/US

Large Constellations

Loading constellations...